SCP
0 0 0 0 0 0 0 0 0 0 0 0 0 0 0 0 0 0 0 0 0 0 0 0 0 0 0 0 0 0 0 0 0 0 0 0 0 0 0 0 0 0 0 0
0 0 0 0 0 0 0 0 0 0 0 0 0 0 0 0 0 0 0 0 0 0 0 0 0 0 0 0 0 0 0 0 0 0 0 0 0 0 0 0 0 0 0 0
0 0 0 0 0 0 0 0 0 0 0 0 0 0 0 0 0 0 0 0 0 0 0 0 0 0 0 0 0 0 0 0 0 0 0 0 0 0 0 0 0 0 0 0
0 0 0 0 0 0 0 0 0 0 0 0 0 0 0 0 0 0 0 0 0 0 0 0 0 0 0 0 0 0 0 0 0 0 0 0 0 0 0 0 0 0 0 0
0 0 0 0 0 0 0 0 0 0 0 0 0 0 0 0 0 0 0 0 0 0 0 0 0 0 0 0 0 0 0 0 0 0 0 0 0 0 0 0 0 0 0 0
0 0 0 0 0 0 0 0 0 0 0 0 0 0 0 0 0 0 0 0 0 0 0 0 0 0 0 0 0 0 0 0 0 0 0 0 0 0 0 0 0 0 0 0
0 0 0 0 0 0 0 0 0 0 0 0 0 0 0 0 0 0 0 0 0 0 0 0 0 0 0 0 0 0 0 0 0 0 0 0 0 0 0 0 0 0 0 0
0 0 0 0 0 0 0 0 0 0 0 0 0 0 0 0 0 0 0 0 0 0 0 0 0 0 0 0 0 0 0 0 0 0 0 0 0 0 0 0 0 0 0 0
0 0 0 0 0 0 0 0 0 0 0 0 0 0 0 0 0 0 0 0 0 0 0 0 0 0 0 0 0 0 0 0 0 0 0 0 0 0 0 0 0 0 0 0
0 0 0 0 0 0 0 0 0 0 0 0 0 0 0 0 0 0 0 0 0 0 0 0 0 0 0 0 0 0 0 0 0 0 0 0 0 0 0 0 0 0 0 0
0 0 0 0 0 0 0 0 0 0 0 0 0 0 0 0 0 0 0 0 0 0 0 0 0 0 0 0 0 0 0 0 0 0 0 0 0 0 0 0 0 0 0 0
0 0 0 0 0 0 0 0 0 0 0 0 0 0 0 0 0 0 0 0 0 0 0 0 0 0 0 0 0 0 0 0 0 0 0 0 0 0 0 0 0 0 0 0
0 0 0 0 0 0 0 0 0 0 0 0 0 0 0 0 0 0 0 0 0 0 0 0 0 0 0 0 0 0 0 0 0 0 0 0 0 0 0 0 0 0 0 0
0 0 0 0 0 0 0 0 0 0 0 0 0 0 0 0 0 0 0 0 0 0 0 0 0 0 0 0 0 0 0 0 0 0 0 0 0 0 0 0 0 0 0 0
0 0 0 0 0 0 0 0 0 0 0 0 0 0 0 0 0 0 0 0 0 0 0 0 0 0 0 0 0 0 0 0 0 0 0 0 0 0 0 0 0 0 0 0
0 0 0 0 0 0 0 0 0 0 0 0 0 0 0 0 0 0 0 0 0 0 0 0 0 0 0 0 0 0 0 0 0 0 0 0 0 0 0 0 0 0 0 0
0 0 0 0 0 0 0 0 0 0 0 0 0 0 0 0 0 0 0 0 0 0 0 0 0 0 0 0 0 0 0 0 0 0 0 0 0 0 0 0 0 0 0 0
0 0 0 0 0 0 0 0 0 0 0 0 0 0 0 0 0 0 0 0 0 0 0 0 0 0 0 0 0 0 0 0 0 0 0 0 0 0 0 0 0 0 0 0
0 0 0 0 0 0 0 0 0 0 0 0 0 0 0 0 0 0 0 0 0 0 0 0 0 0 0 0 0 0 0 0 0 0 0 0 0 0 0 0 0 0 0 0
0 0 0 0 0 0 0 0 0 0 0 0 0 0 0 0 0 0 0 0 0 0 0 0 0 0 0 0 0 0 0 0 0 0 0 0 0 0 0 0 0 0 0 0
0 0 0 0 0 0 0 0 0 0 0 0 0 0 0 0 0 0 0 0 0 0 0 0 0 0 0 0 0 0 0 0 0 0 0 0 0 0 0 0 0 0 0 0
0 0 0 0 0 0 0 0 0 0 0 0 0 0 0 0 0 0 0 0 0 0 0 0 0 0 0 0 0 0 0 0 0 0 0 0 0 0 0 0 0 0 0 0
0 0 0 0 0 0 0 0 0 0 0 0 0 0 0 0 0 0 0 0 0 0 0 0 0 0 0 0 0 0 0 0 0 0 0 0 0 0 0 0 0 0 0 0
0 0 0 0 0 0 0 0 0 0 0 0 0 0 0 0 0 0 0 0 0 0 0 0 0 0 0 0 0 0 0 0 0 0 0 0 0 0 0 0 0 0 0 0
0 0 0 0 0 0 0 0 0 0 0 0 0 0 0 0 0 0 0 0 0 0 0 0 0 0 0 0 0 0 0 0 0 0 0 0 0 0 0 0 0 0 0 0
0 0 0 0 0 0 0 0 0 0 0 0 0 0 0 0 0 0 0 0 0 0 0 0 0 0 0 0 0 0 0 0 0 0 0 0 0 0 0 0 0 0 0 0
0 0 0 0 0 0 0 0 0 0 0 0 0 0 0 0 0 0 0 0 0 0 0 0 0 0 0 0 0 0 0 0 0 0 0 0 0 0 0 0 0 0 0 0
Wind_Speed
10 9 9 11 12 12 14 14 13 13 13 10 7 6 5 4 3 2 1 1 2 2 2 3 3 4 4 4 3 2 1 1 1 1 1 1 1 1 1 1 2 2 2 2
9 9 9 12 13 14 15 14 15 15 13 7 4 3 4 4 3 3 2 2 3 3 3 3 4 4 4 4 3 2 2 2 1 1 1 1 1 1 1 1 1 2 2 2
7 6 7 10 9 9 9 8 9 10 7 3 3 4 4 4 3 3 3 3 3 3 3 3 4 4 4 4 3 3 2 2 2 1 1 1 1 1 1 1 1 1 2 2
5 5 9 3 2 4 6 6 5 5 4 4 4 4 4 3 2 3 3 3 4 3 4 4 4 4 3 3 3 2 2 2 2 2 2 2 1 1 2 1 1 1 2 2
4 7 8 2 2 2 5 5 3 5 5 4 3 3 2 1 2 3 3 3 3 4 4 3 3 3 3 2 2 2 3 3 2 2 2 2 2 2 2 2 1 1 2 2
5 7 7 1 4 5 4 5 2 4 5 3 2 3 2 2 3 3 3 2 3 3 3 3 3 3 2 2 2 3 3 3 3 2 2 2 2 2 2 2 2 1 2 2
7 7 5 4 5 2 3 3 5 4 4 3 4 4 3 3 3 2 3 3 3 3 2 3 3 2 2 2 3 4 3 3 3 2 2 2 2 2 2 2 2 1 2 2
5 6 3 4 2 1 4 5 4 4 4 3 2 3 2 2 2 3 3 3 3 2 3 3 3 2 2 3 4 3 3 3 3 3 2 2 2 2 2 1 1 1 1 1
3 2 2 1 1 3 4 4 4 4 4 2 2 2 2 2 2 3 3 3 3 3 3 3 3 3 2 3 3 3 2 2 2 2 2 2 2 2 1 1 1 1 1 1
3 3 3 3 3 4 4 4 5 4 3 2 2 3 3 3 3 3 4 4 3 3 3 4 4 4 3 4 3 3 3 3 2 2 2 2 2 2 1 1 1 1 1 1
4 3 3 2 4 5 5 4 4 4 4 3 3 3 3 3 3 4 4 4 4 3 3 4 4 5 5 4 3 3 3 3 3 3 2 2 2 2 2 2 2 2 2 1
4 3 3 4 4 4 4 4 4 4 4 4 3 3 3 3 3 4 4 4 4 4 4 5 5 5 5 5 4 3 2 3 3 2 2 2 1 2 3 2 3 3 3 3
4 3 3 4 3 4 3 3 3 3 3 3 3 3 3 3 3 4 4 5 5 5 5 5 5 5 6 5 4 3 3 3 2 2 2 2 2 2 2 3 3 3 3 3
3 2 2 3 3 3 3 3 3 3 3 3 3 3 3 3 4 4 5 5 4 4 5 5 5 6 6 6 4 4 3 3 3 2 2 2 2 2 2 2 2 2 3 3
3 3 2 3 3 3 3 3 4 4 4 4 4 3 3 3 4 4 4 4 4 5 5 5 5 6 6 6 5 4 4 3 3 3 3 2 2 2 2 2 2 2 2 2
3 3 2 2 3 3 3 3 3 3 4 4 4 4 3 3 3 4 4 4 4 5 5 5 5 6 6 6 5 4 3 5 4 3 2 2 2 2 2 2 2 2 2 2
2 3 3 3 3 3 3 2 2 3 3 3 4 4 3 3 3 4 4 5 4 4 5 5 6 6 6 6 5 4 3 4 5 3 3 3 3 3 2 2 2 3 2 3
2 3 3 3 3 2 3 3 3 3 3 3 3 3 3 3 3 4 4 4 4 4 5 5 6 6 6 6 5 4 3 3 3 3 3 3 3 3 3 3 3 3 3 3
3 3 3 3 2 2 2 3 3 3 3 3 3 3 3 3 3 3 3 3 4 4 5 6 8 6 6 6 6 3 3 3 3 3 3 3 3 3 3 3 3 3 3 3
4 4 3 3 3 2 2 2 2 2 2 2 2 2 3 3 3 3 3 3 3 4 5 6 6 5 5 6 6 4 4 4 3 3 3 3 3 3 3 3 3 3 3 3
4 4 3 3 3 3 2 2 2 2 3 2 2 2 3 3 3 3 3 3 4 5 5 6 5 4 5 5 6 4 4 4 3 3 3 3 3 3 3 3 4 3 3 3
4 3 3 3 3 3 3 3 2 3 3 3 3 3 3 3 3 3 3 3 4 7 6 4 4 6 7 6 4 4 4 4 4 3 3 3 3 3 4 4 4 4 4 4
4 3 3 3 3 3 4 3 3 3 3 3 3 3 3 3 3 3 3 3 4 7 6 4 6 9 9 5 4 4 4 4 4 4 4 4 4 4 4 4 4 4 4 4
4 4 3 3 3 3 4 4 4 3 3 4 3 3 3 3 3 3 3 5 7 8 5 6 9 10 8 4 4 4 4 4 4 4 4 4 4 4 4 4 4 4 4 5
4 3 3 3 3 3 3 4 4 4 4 3 4 4 3 3 3 4 4 5 7 7 5 6 9 9 6 4 4 4 4 4 4 4 4 4 4 4 4 4 4 4 4 5
4 3 3 3 3 3 3 3 3 3 3 3 3 4 3 3 4 4 4 5 6 7 5 4 5 6 4 4 4 5 4 5 5 4 5 5 5 5 5 5 6 5 5 5
4 3 3 3 3 3 3 3 3 3 3 3 4 4 4 4 4 4 5 4 5 5 5 4 4 4 4 4 5 5 4 4 4 5 5 5 5 5 5 6 5 5 5 5
Wind_Direction
268 274 263 258 254 245 239 242 252 261 266 279 295 296 291 284 275 258 262 304 327 329 335 337 337 336 334 333 327 310 277 258 258 265 259 256 257 256 244 233 223 214 210 207
270 263 263 264 259 249 245 248 255 266 269 290 302 299 288 278 261 250 270 300 316 319 321 323 326 326 327 327 326 311 293 285 286 276 257 257 266 260 243 235 224 209 204 206
265 280 276 258 255 248 246 243 249 256 267 297 286 281 276 268 254 256 282 297 301 301 304 311 315 315 314 316 318 306 295 295 292 280 273 272 267 260 251 235 223 225 224 220
262 266 246 263 353 255 243 242 249 268 283 273 280 285 278 266 257 282 294 296 301 305 307 310 312 311 310 314 314 315 309 305 308 301 295 294 280 274 274 261 242 240 236 232
233 249 261 267 324 285 242 248 270 276 285 308 327 285 244 268 311 301 295 295 302 306 305 305 310 314 312 318 324 332 330 324 317 301 287 284 276 272 277 270 262 259 249 238
228 244 254 312 344 315 240 232 323 301 290 295 288 272 291 335 323 322 321 320 317 314 312 312 317 315 311 319 326 326 325 319 314 305 286 273 269 274 283 270 265 262 262 260
234 244 257 6 337 307 228 310 342 312 300 278 264 299 345 338 330 333 333 337 334 326 325 327 325 317 316 327 326 325 325 321 318 315 306 294 284 277 269 265 257 257 265 271
225 236 248 23 23 311 323 341 331 330 327 310 323 343 348 340 337 340 345 349 347 344 342 342 340 327 321 328 331 331 331 331 330 328 328 314 300 293 278 261 253 258 262 275
233 258 12 9 328 339 342 330 333 334 335 343 348 348 352 346 344 345 350 351 348 349 351 354 353 343 333 335 337 338 343 338 337 337 335 324 311 302 297 283 273 280 272 271
257 267 316 335 351 352 347 337 334 340 352 9 9 3 358 353 355 356 355 351 353 356 354 352 350 349 348 343 339 343 345 342 341 339 341 340 338 324 309 295 283 275 268 272
260 291 322 336 345 340 346 354 4 13 13 17 24 19 16 11 6 2 360 358 359 1 1 352 352 354 352 350 347 350 351 347 344 341 336 343 351 346 325 320 309 288 273 270
265 282 279 296 320 338 347 355 1 10 13 14 18 21 19 13 9 7 4 1 3 2 357 353 355 356 354 349 347 351 349 348 343 337 334 334 343 358 15 346 345 328 316 300
285 299 296 303 323 346 352 355 2 13 14 7 10 19 24 18 13 10 6 2 359 354 352 352 355 357 353 347 345 345 340 336 334 332 331 331 332 332 341 11 21 9 357 347
327 332 319 327 325 342 360 9 13 16 17 15 10 15 20 17 10 6 359 352 352 352 353 354 357 356 350 347 345 342 338 336 330 330 329 328 330 331 329 331 341 355 6 5
350 344 313 319 341 3 17 20 21 15 10 9 7 8 10 7 0 354 349 348 354 356 354 355 356 352 349 346 346 344 339 335 335 333 334 336 336 337 338 334 331 335 340 349
334 347 346 349 352 1 9 10 6 354 352 354 355 354 353 352 352 353 354 355 355 352 348 349 350 347 346 347 345 339 341 347 342 335 337 340 339 338 338 333 327 324 323 329
331 328 333 332 330 331 335 336 332 332 336 339 341 343 346 348 352 353 353 353 352 348 346 346 345 345 345 343 340 335 335 338 339 334 340 338 334 333 330 324 319 316 314 317
305 292 288 281 285 298 314 325 327 327 325 325 332 337 339 339 336 338 341 345 349 353 354 347 342 341 342 343 339 334 333 334 334 335 335 332 329 324 320 316 315 312 314 315
323 317 317 321 314 299 299 307 314 317 321 325 326 324 324 326 330 332 334 340 344 344 345 343 340 341 342 343 340 332 333 334 333 332 329 327 327 326 321 313 312 313 313 314
338 343 347 345 345 331 314 316 321 322 325 329 329 331 333 335 336 332 330 329 334 329 328 330 334 338 337 335 336 331 333 332 329 326 325 324 324 324 320 315 314 312 312 309
349 354 354 353 352 350 343 332 330 332 337 339 332 328 328 330 332 330 328 330 339 335 329 330 332 329 328 329 330 329 332 330 326 323 320 318 318 316 315 314 311 310 308 304
351 353 355 359 2 358 358 358 358 351 348 349 349 344 337 335 338 338 332 320 324 326 328 324 323 324 328 327 326 329 327 324 318 315 312 311 309 307 307 307 304 304 302 299
351 353 357 1 1 357 1 7 7 359 352 345 339 335 332 328 324 322 323 327 325 324 325 319 322 326 329 329 324 321 318 314 310 306 303 301 298 298 297 297 297 297 296 295
354 358 360 2 9 13 8 2 357 353 348 338 335 329 325 326 326 326 316 317 323 322 321 320 326 329 332 328 318 312 308 305 302 300 297 296 294 292 290 290 291 292 291 292
355 355 359 4 6 1 354 350 351 352 350 345 342 339 333 322 312 314 314 313 318 322 319 322 326 329 328 314 310 305 300 296 295 294 292 293 292 290 288 287 287 288 288 286
351 348 348 349 345 338 335 338 339 338 336 335 335 333 330 326 319 313 312 314 314 317 318 314 314 316 310 306 303 300 297 297 298 297 292 290 288 287 285 286 287 284 284 283
352 351 352 355 354 346 338 334 331 328 326 323 319 320 323 323 319 317 315 312 313 313 310 308 308 307 305 303 301 299 296 294 293 291 290 287 286 284 284 283 283 282 282 281